Wind_Speed
13 13 13 13 14 14 15 15 14 14 15 15 15 16 16 16 16 16 16 16 16 16 17 17 18 19 20 21 23 24 25 25 26 27 28 29 30 31 31 31 32 32 32
15 16 16 17 17 18 18 18 17 17 18 18 18 18 17 17 17 17 17 17 17 17 18 19 20 21 22 23 24 26 27 27 28 29 30 32 33 33 34 34 35 35 35
18 19 20 20 21 21 21 21 20 20 21 21 20 20 19 19 18 18 18 19 19 19 19 21 22 23 24 25 26 27 28 29 30 30 31 32 33 34 35 35 36 36 37
21 22 23 24 25 25 25 25 24 23 24 23 22 22 22 21 20 20 20 21 21 21 21 22 23 24 25 26 28 29 30 31 32 32 33 33 35 35 36 37 38 39 39
24 25 26 28 28 27 27 27 27 27 26 25 25 24 24 24 23 22 23 23 24 24 24 25 26 27 28 29 30 31 32 33 34 35 36 36 37 37 38 39 40 41 41
28 28 29 29 30 28 28 28 28 28 28 27 27 27 26 26 25 25 26 26 27 28 29 29 31 31 32 33 34 35 35 36 38 39 40 41 41 42 43 44 44 45 46
30 32 31 31 31 30 30 30 28 28 28 27 27 29 29 29 29 29 29 30 30 32 33 34 36 36 37 38 39 39 39 41 42 43 44 45 46 47 48 49 50 50 51
33 33 31 31 30 29 27 26 27 28 27 28 29 30 31 31 31 32 32 33 34 36 37 38 40 41 41 42 43 44 45 46 47 48 49 50 51 52 53 54 55 55 56
34 32 29 29 28 28 27 27 27 28 28 29 30 32 33 33 33 34 35 37 38 39 41 42 43 44 45 47 48 49 49 50 51 53 54 55 56 57 58 59 60 61 62
33 30 29 28 29 29 29 29 28 28 30 30 31 32 33 34 35 37 38 39 41 42 44 46 47 48 49 51 52 53 53 55 56 57 58 59 61 62 63 64 64 66 67
32 32 30 28 29 30 30 30 30 30 31 31 32 33 35 36 38 40 41 42 44 45 47 49 50 51 53 54 55 56 57 58 60 61 63 64 65 66 67 68 68 69 70
34 33 31 30 29 29 30 30 32 32 32 32 33 36 38 39 41 42 44 46 48 49 50 52 53 55 57 58 59 60 61 63 64 66 67 68 70 70 71 71 72 72 73
37 35 32 32 30 30 31 33 34 34 35 35 37 39 41 43 44 46 47 49 51 53 54 56 58 59 61 62 64 64 66 67 69 70 71 72 73 73 73 74 74 74 73
40 37 36 35 33 33 35 35 37 38 38 40 41 42 44 46 48 49 51 53 55 57 59 61 62 64 66 66 67 68 69 70 72 73 73 74 74 74 74 73 72 71 71
43 42 42 42 38 38 39 39 40 41 42 43 44 46 48 50 52 53 55 57 59 61 63 66 67 69 70 70 70 71 72 72 73 73 73 73 73 72 72 70 69 68 67
47 47 46 45 43 42 43 44 44 46 47 47 49 51 52 54 56 57 60 62 63 65 67 69 71 72 71 71 71 71 71 71 72 72 72 71 70 69 67 66 65 64 63
48 48 47 47 46 47 47 47 47 48 50 51 53 55 56 57 59 61 63 64 66 67 69 69 69 69 68 68 68 68 68 68 68 67 66 66 65 63 62 61 59 58 57
46 47 47 48 48 48 48 48 49 51 53 55 56 57 58 60 62 64 65 67 67 66 65 64 64 64 63 63 62 62 62 61 61 60 59 58 57 57 55 53 52 52 51
45 46 47 48 49 49 50 51 53 55 57 58 59 60 61 63 63 63 63 62 61 59 59 58 57 57 57 56 55 55 55 55 54 53 51 50 49 48 46 45 44 44 43
45 46 47 48 50 51 52 53 55 56 57 59 60 60 60 61 60 58 56 55 55 54 53 52 52 51 51 51 50 50 49 48 46 45 43 42 40 39 38 38 38 38 38
45 46 46 48 49 51 52 54 56 57 58 58 58 57 56 56 54 53 52 50 48 47 47 46 45 45 45 44 43 42 41 39 38 37 36 36 34 34 34 33 33 33 34
45 45 46 47 49 50 52 53 54 54 54 54 53 53 52 50 48 46 45 43 42 41 40 40 39 38 37 36 36 35 34 32 31 31 30 30 30 30 30 30 31 32 34
44 45 46 48 49 50 51 51 51 50 50 50 48 47 46 44 42 41 39 37 36 34 33 33 32 31 31 31 30 29 28 27 27 26 25 26 27 28 29 31 32 33 34
42 43 44 46 47 47 48 48 47 47 47 45 44 43 41 38 36 34 32 30 29 28 27 26 26 26 26 25 25 24 24 24 24 24 24 24 26 28 30 31 32 32 32
40 41 42 43 43 43 44 44 43 42 40 38 36 33 31 28 26 24 23 22 21 20 20 21 21 21 20 20 21 21 21 21 22 24 24 25 26 28 29 30 31 30 30
36 37 38 38 39 39 38 37 35 33 31 28 25 23 21 18 17 16 16 15 15 15 16 16 16 16 17 18 19 19 20 21 22 23 24 25 25 25 26 27 27 28 27
Wind_Direction
265 271 276 279 282 287 290 291 293 296 298 299 300 305 307 302 301 299 299 295 291 287 285 285 286 287 287 287 287 287 286 286 286 285 284 283 283 283 283 282 281 280 279
269 273 276 279 281 284 286 285 286 289 290 291 292 295 299 299 298 298 298 297 294 291 289 288 287 287 289 290 289 288 287 287 287 286 286 284 284 284 283 282 280 280 279
269 272 274 277 280 281 281 280 280 283 284 285 286 287 290 292 293 294 296 295 293 292 291 289 287 286 288 289 288 288 286 286 287 287 287 286 285 284 283 282 281 280 279
269 271 273 277 278 277 277 277 277 280 281 280 280 281 283 286 287 287 288 290 290 290 288 286 286 285 285 286 288 287 286 287 287 286 286 286 285 284 283 282 281 281 279
268 270 273 277 277 276 277 276 276 278 277 277 277 277 278 280 283 284 284 283 284 284 283 283 284 283 284 284 284 285 285 285 285 284 284 284 284 283 283 282 281 281 280
267 268 272 275 275 275 276 276 273 274 273 275 275 275 275 277 280 282 283 282 282 282 281 281 281 282 283 283 283 284 284 284 284 284 283 283 282 282 283 282 281 281 280
267 270 273 275 275 274 278 276 272 273 272 272 274 273 273 275 278 279 280 281 281 281 281 281 281 282 282 282 283 283 282 282 283 283 282 282 282 282 282 281 280 280 279
268 271 272 276 277 278 279 277 274 277 275 273 273 273 273 275 276 277 279 280 281 281 281 281 281 282 282 282 282 282 282 282 282 282 282 282 282 282 281 281 280 280 280
269 270 274 279 279 279 277 278 282 276 276 277 274 274 275 276 275 276 277 279 280 281 281 281 281 281 281 281 281 281 281 282 281 281 281 281 282 282 281 281 281 281 280
269 276 280 282 280 281 281 279 280 278 279 277 276 274 274 275 277 278 278 279 280 280 281 281 281 281 281 281 281 281 282 282 281 281 281 281 281 281 281 281 280 280 280
277 283 284 286 285 283 281 279 280 280 279 278 276 276 277 277 278 278 278 279 279 279 280 280 280 280 280 280 281 281 282 281 281 281 281 281 281 281 281 280 280 280 280
282 285 287 288 287 284 282 281 279 280 279 278 279 279 279 280 280 280 280 280 280 280 279 280 280 281 281 281 281 281 281 281 281 281 281 281 281 281 280 280 280 281 281
287 286 288 289 288 286 284 282 282 280 280 280 281 281 280 280 280 280 280 280 280 281 281 281 281 281 281 281 281 281 281 281 281 281 281 281 281 281 281 281 280 281 281
291 292 290 290 289 287 286 284 282 281 280 281 281 280 280 280 280 281 281 281 282 282 282 282 282 282 282 281 281 280 281 281 281 281 281 281 281 281 282 281 282 282 282
290 291 290 290 288 288 286 284 284 282 281 281 281 281 281 281 281 281 281 281 282 282 282 282 282 282 281 281 281 281 281 281 281 281 282 282 282 282 282 283 283 284 283
289 290 289 288 285 285 285 284 282 282 281 282 283 282 282 282 282 282 281 281 282 282 281 282 282 282 282 281 281 281 282 282 281 282 283 283 283 283 283 284 284 283 282
286 286 285 283 282 281 282 282 281 280 281 283 284 283 282 283 283 282 282 282 282 282 282 282 282 283 283 283 283 283 283 283 283 283 284 284 284 284 284 284 283 282 281
280 281 280 280 280 282 282 281 282 282 283 284 284 283 282 282 282 282 283 283 283 284 283 283 285 285 285 285 285 285 285 285 286 286 286 286 286 285 284 283 282 281 281
279 280 281 280 282 283 283 283 283 284 285 285 285 283 283 284 284 284 284 284 285 285 286 286 287 287 287 287 287 287 287 288 288 289 289 288 287 285 284 283 283 283 283
279 280 281 281 282 282 283 284 285 285 286 286 286 286 286 287 286 286 287 287 287 287 287 288 288 288 289 289 289 289 290 291 292 292 291 290 288 287 286 286 286 286 285
280 281 281 282 283 285 286 286 286 287 288 289 289 288 288 289 289 289 289 289 289 289 289 290 291 291 292 293 294 294 293 294 294 295 295 294 293 292 291 290 290 290 290
282 284 284 285 287 288 288 289 289 290 290 291 291 290 290 290 291 291 292 292 291 292 292 292 294 295 297 298 299 299 299 299 299 299 299 298 298 297 297 297 297 297 296
284 286 287 289 290 291 292 292 292 292 293 293 293 293 293 293 293 293 293 294 295 295 295 296 298 300 301 302 303 304 305 305 305 304 303 303 302 302 302 302 302 302 301
288 291 292 293 294 294 295 295 294 295 296 296 296 296 296 295 295 295 296 296 296 297 298 300 303 305 305 307 308 308 309 309 309 309 309 308 307 307 306 307 308 307 305
295 296 297 298 298 298 298 298 298 298 298 299 299 300 301 301 302 301 302 302 303 305 307 308 310 311 312 314 314 315 315 314 314 315 314 314 313 313 312 313 313 313 311
298 299 300 301 302 302 302 302 302 302 303 304 304 306 308 310 311 311 312 314 316 318 320 320 320 321 323 323 324 323 322 322 321 320 320 319 319 318 318 319 320 320 319
Height
5894 5894 5894 5893 5893 5892 5892 5891 5890 5889 5887 5886 5884 5882 5881 5879 5878 5876 5875 5874 5874 5874 5874 5873 5873 5872 5871 5870 5870 5869 5868 5867 5867 5866 5866 5865 5864 5864 5863 5863 5862 5862 5862
5892 5892 5891 5891 5890 5890 5889 5888 5887 5886 5885 5883 5881 5880 5878 5877 5875 5874 5873 5871 5870 5870 5869 5869 5868 5867 5866 5865 5864 5863 5862 5861 5861 5860 5859 5858 5857 5857 5856 5855 5855 5854 5854
5889 5889 5888 5888 5887 5886 5885 5884 5883 5882 5881 5879 5878 5876 5875 5873 5872 5871 5869 5868 5867 5866 5865 5864 5863 5862 5861 5860 5859 5858 5856 5855 5854 5853 5852 5851 5850 5849 5848 5847 5846 5846 5845
5885 5885 5884 5883 5882 5881 5880 5879 5879 5877 5876 5875 5874 5872 5871 5869 5868 5867 5865 5864 5863 5862 5860 5859 5858 5857 5856 5854 5853 5852 5850 5849 5848 5846 5845 5843 5842 5841 5840 5839 5838 5837 5836
5881 5880 5879 5878 5877 5876 5875 5874 5873 5872 5871 5870 5869 5868 5866 5865 5864 5862 5861 5860 5858 5857 5856 5854 5853 5851 5850 5848 5846 5845 5843 5842 5840 5839 5837 5835 5834 5832 5831 5830 5828 5827 5826
5876 5875 5874 5872 5870 5870 5868 5867 5866 5865 5865 5864 5863 5862 5861 5859 5858 5857 5856 5854 5853 5851 5850 5848 5846 5845 5843 5841 5840 5838 5836 5834 5832 5830 5828 5826 5824 5823 5821 5819 5818 5816 5815
5870 5869 5868 5866 5864 5863 5862 5860 5859 5858 5858 5857 5856 5855 5854 5853 5852 5851 5849 5848 5847 5845 5843 5841 5839 5837 5835 5833 5831 5829 5827 5825 5823 5820 5818 5816 5814 5812 5810 5808 5806 5804 5803
5863 5862 5860 5859 5857 5856 5854 5853 5852 5851 5851 5850 5849 5848 5847 5847 5845 5844 5842 5841 5839 5837 5835 5833 5831 5829 5826 5824 5822 5820 5817 5815 5812 5809 5807 5804 5802 5799 5797 5795 5792 5791 5789
5856 5854 5853 5852 5851 5849 5848 5846 5845 5845 5844 5843 5842 5841 5840 5839 5838 5837 5835 5833 5831 5829 5826 5824 5822 5819 5816 5813 5811 5808 5806 5803 5800 5797 5794 5791 5788 5785 5782 5779 5777 5774 5772
5848 5847 5846 5845 5844 5843 5841 5840 5838 5837 5837 5836 5835 5833 5833 5831 5830 5828 5827 5824 5822 5819 5817 5814 5811 5808 5805 5802 5799 5796 5793 5789 5786 5782 5779 5776 5773 5769 5766 5763 5760 5757 5755
5841 5840 5839 5838 5837 5836 5834 5833 5831 5830 5829 5828 5827 5826 5824 5822 5821 5819 5817 5815 5812 5809 5806 5803 5799 5796 5793 5789 5786 5783 5779 5775 5771 5767 5763 5760 5756 5752 5749 5745 5742 5739 5736
5834 5833 5832 5831 5830 5828 5827 5825 5824 5822 5821 5820 5818 5817 5815 5813 5811 5808 5806 5803 5800 5797 5794 5790 5786 5783 5779 5775 5771 5768 5763 5759 5755 5750 5746 5742 5738 5734 5730 5727 5723 5720 5716
5826 5824 5824 5823 5822 5820 5819 5817 5815 5814 5812 5811 5809 5807 5805 5803 5800 5797 5794 5790 5787 5784 5780 5776 5772 5767 5763 5759 5755 5751 5746 5742 5737 5732 5728 5723 5719 5715 5711 5707 5703 5700 5697
5818 5816 5815 5815 5813 5812 5810 5808 5807 5805 5803 5801 5799 5797 5794 5791 5787 5784 5780 5777 5773 5769 5764 5760 5755 5750 5746 5741 5737 5733 5728 5723 5718 5713 5708 5704 5700 5695 5691 5687 5684 5680 5677
5809 5808 5807 5805 5803 5802 5800 5798 5797 5795 5792 5790 5787 5784 5781 5778 5774 5770 5766 5762 5758 5753 5748 5742 5738 5732 5727 5722 5718 5713 5708 5704 5699 5693 5688 5684 5680 5676 5672 5668 5664 5661 5657
5800 5798 5796 5794 5793 5791 5790 5787 5785 5783 5780 5778 5775 5771 5768 5764 5760 5755 5751 5746 5740 5735 5730 5723 5718 5713 5707 5702 5697 5693 5688 5684 5679 5674 5669 5664 5660 5657 5653 5649 5646 5642 5639
5790 5788 5786 5784 5782 5780 5777 5775 5773 5770 5767 5764 5760 5757 5753 5748 5744 5739 5734 5728 5723 5717 5711 5704 5698 5693 5688 5683 5678 5674 5669 5665 5660 5656 5651 5646 5643 5639 5636 5632 5628 5625 5621
5780 5778 5775 5772 5770 5768 5765 5762 5760 5757 5753 5750 5746 5741 5737 5732 5727 5721 5716 5710 5704 5698 5692 5686 5680 5675 5670 5666 5662 5657 5652 5647 5642 5638 5634 5630 5626 5622 5619 5616 5612 5609 5606
5769 5767 5764 5761 5759 5756 5753 5750 5746 5742 5738 5734 5730 5725 5720 5714 5709 5703 5698 5692 5686 5681 5676 5671 5665 5659 5655 5650 5647 5642 5637 5632 5627 5623 5620 5616 5612 5608 5605 5602 5599 5596 5592
5758 5755 5753 5750 5747 5743 5740 5736 5732 5727 5723 5718 5713 5707 5702 5697 5691 5686 5681 5676 5671 5666 5661 5656 5651 5646 5641 5637 5633 5628 5624 5619 5615 5610 5607 5603 5600 5597 5593 5590 5587 5584 5580
5747 5744 5741 5737 5734 5730 5726 5722 5717 5712 5707 5702 5696 5690 5685 5680 5675 5670 5666 5661 5656 5652 5648 5643 5639 5634 5630 5625 5621 5616 5613 5608 5604 5600 5596 5593 5589 5586 5583 5580 5576 5573 5568
5736 5732 5729 5725 5721 5717 5713 5708 5703 5698 5692 5686 5681 5675 5670 5666 5661 5656 5653 5648 5644 5640 5636 5632 5628 5624 5620 5616 5611 5607 5603 5600 5596 5592 5588 5584 5580 5577 5574 5570 5566 5562 5558
5725 5722 5718 5713 5709 5704 5700 5695 5689 5684 5678 5672 5667 5661 5656 5652 5648 5645 5641 5637 5634 5631 5627 5624 5620 5616 5612 5608 5604 5600 5596 5592 5589 5585 5582 5578 5574 5570 5566 5562 5558 5553 5548
5715 5711 5706 5702 5697 5692 5687 5682 5676 5670 5665 5659 5654 5649 5644 5640 5637 5633 5630 5628 5626 5623 5620 5617 5614 5610 5607 5603 5599 5596 5592 5588 5584 5580 5576 5572 5568 5563 5558 5553 5548 5544 5538
5705 5701 5696 5691 5686 5680 5675 5669 5663 5658 5653 5648 5643 5638 5634 5631 5628 5625 5623 5622 5620 5617 5615 5612 5609 5606 5603 5599 5595 5592 5588 5584 5580 5576 5571 5567 5562 5557 5551 5546 5540 5535 5529
5696 5691 5686 5681 5675 5670 5664 5658 5653 5648 5643 5639 5635 5631 5628 5626 5624 5621 5620 5618 5616 5613 5611 5609 5606 5603 5600 5596 5593 5589 5585 5581 5576 5572 5567 5562 5557 5552 5546 5540 5535 5528 5522